Location: Newark
(48.9000°N, 0.7000°E)
Time: 20:12:39
(UTC+00:00)

X-37B - Visible Passes

Search period start: 27 September 2020 00:00
Search period end: 07 October 2020 00:00
Orbit: 386 x 387 km, 45.0° (Epoch: 18 September)

Date Brightness Start Highest point End Pass type
(mag) Time Alt. Az. Time Alt. Az. Time Alt. Az.
02 Oct 3.1 19:10:28 10° S 19:10:54 12° S 19:10:54 12° S visible
03 Oct 3.4 19:47:07 10° SW 19:47:32 13° SW 19:47:32 13° SW visible
04 Oct 2.2 18:49:01 10° SSW 18:51:28 20° SSE 18:51:46 20° SSE visible
05 Oct 2.2 19:26:15 10° SW 19:28:11 27° SSW 19:28:11 27° SSW visible
06 Oct 1.9 18:27:59 10° SW 18:30:44 27° SSE 18:32:15 19° ESE visible
06 Oct 3.6 20:03:59 10° WSW 20:04:31 14° WSW 20:04:31 14° WSW visible
